FW1477 Weather Reports


time (UTC)temp
C
wind
direction
speed
KPH
gust
KPH
rain 1hr
cm
rain 24hr
cm
rain mn
cm
humidity
%
barometer
mb
20260503200016 26 0.0 0.0 0.00 0.00 0.00 15 1019.6
20260503195017 26 0.0 0.0 0.00 0.00 0.00 16 1019.9
20260503194038 26 0.0 0.0 0.00 0.00 0.00 16 1020.1
20260503193017 26 0.0 0.0 0.00 0.00 0.00 17 1020.2
20260503191021 25 0.0 0.0 0.00 0.00 0.00 18 1020.0
20260503190016 25 0.0 0.0 0.00 0.00 0.00 19 1020.4
20260503185021 25 0.0 0.0 0.00 0.00 0.00 19 1020.2
20260503184016 25 0.0 0.0 0.00 0.00 0.00 21 1020.9
20260503183017 24 0.0 0.0 0.00 0.00 0.00 23 1020.8
20260503182016 23 0.0 0.0 0.00 0.00 0.00 24 1021.0
20260503181016 23 0.0 0.0 0.00 0.00 0.00 24 1020.7
20260503180037 22 0.0 0.0 0.00 0.00 0.00 26 1020.9
20260503175016 22 0.0 0.0 0.00 0.00 0.00 27 1021.2
20260503174016 22 0.0 0.0 0.00 0.00 0.00 28 1020.9
20260503171016 20 0.0 0.0 0.00 0.00 0.00 35 1021.2
20260503131036 12 225 9.7 16.1 0.00 0.00 0.00 63 1016.6
20260503081017 15 248 9.7 16.1 0.00 0.00 0.00 66 1017.3
20260503072016 16 248 8.0 14.5 0.00 0.00 0.00 64 1018.2
20260503071016 16 248 6.4 12.9 0.00 0.00 0.00 63 1018.4
20260503055017 17 248 6.4 12.9 0.00 0.00 0.00 60 1018.7
20260503054017 17 248 8.0 12.9 0.00 0.00 0.00 59 1018.6
20260503053017 18 248 9.7 19.3 0.00 0.00 0.00 59 1018.7
20260503052017 18 225 6.4 11.3 0.00 0.00 0.00 58 1019.2
20260503051016 18 225 3.2 11.3 0.00 0.00 0.00 57 1019.1
20260503050037 18 225 1.6 11.3 0.00 0.00 0.00 57 1018.8
20260503045037 18 225 4.8 16.1 0.00 0.00 0.00 56 1018.4
20260503044016 18 248 6.4 19.3 0.00 0.00 0.00 56 1018.3
20260503043017 18 225 11.3 24.1 0.00 0.00 0.00 54 1017.8
20260503042016 19 248 9.7 25.7 0.00 0.00 0.00 53 1018.1
20260503041016 19 248 19.3 37.0 0.00 0.00 0.00 52 1017.9
20260503040037 19 248 22.5 43.5 0.00 0.00 0.00 51 1017.8
20260503035016 20 248 17.7 33.8 0.00 0.00 0.00 49 1017.5
20260503034016 20 248 17.7 32.2 0.00 0.00 0.00 47 1017.0
20260503033018 20 248 19.3 32.2 0.00 0.00 0.00 45 1017.2
20260503032016 20 248 17.7 35.4 0.00 0.00 0.00 43 1017.0
20260503031017 21 225 22.5 45.1 0.00 0.00 0.00 41 1016.8
20260503030037 21 225 20.9 43.5 0.00 0.00 0.00 40 1016.7
20260503025016 21 248 22.5 38.6 0.00 0.00 0.00 36 1016.6
20260503024016 22 248 19.3 38.6 0.00 0.00 0.00 33 1016.4
20260503023016 22 225 14.5 33.8 0.00 0.00 0.00 30 1016.5
20260503022017 22 0.0 0.0 0.00 0.00 0.00 29 1016.8
20260503021016 22 0.0 0.0 0.00 0.00 0.00 27 1016.7
20260503020016 23 0.0 0.0 0.00 0.00 0.00 26 1016.6
20260503015016 23 0.0 0.0 0.00 0.00 0.00 25 1016.3
20260503014057 23 0.0 0.0 0.00 0.00 0.00 25 1016.8
20260503013016 23 0.0 0.0 0.00 0.00 0.00 24 1016.6
20260503012036 24 0.0 0.0 0.00 0.00 0.00 23 1016.5
20260503011016 25 0.0 0.0 0.00 0.00 0.00 21 1016.8
20260503010017 25 0.0 0.0 0.00 0.00 0.00 19 1016.7
20260503005016 26 0.0 0.0 0.00 0.00 0.00 18 1016.9
20260503004036 26 0.0 0.0 0.00 0.00 0.00 16 1017.0
20260503003016 26 0.0 0.0 0.00 0.00 0.00 15 1017.0
20260503002016 26 0.0 0.0 0.00 0.00 0.00 14 1016.8
20260503001016 27 0.0 0.0 0.00 0.00 0.00 12 1017.1
20260503000016 27 0.0 0.0 0.00 0.00 0.00 13 1016.7
20260502235016 27 0.0 0.0 0.00 0.00 0.00 12 1016.7
20260502234056 27 0.0 0.0 0.00 0.00 0.00 9 1016.5
20260502233016 28 0.0 0.0 0.00 0.00 0.00 10 1017.2
20260502232015 28 0.0 0.0 0.00 0.00 0.00 8 1016.6
20260502231015 27 0.0 0.0 0.00 0.00 0.00 8 1016.5
20260502230016 28 0.0 0.0 0.00 0.00 0.00 7 1017.0
20260502225016 28 0.0 0.0 0.00 0.00 0.00 8 1017.1
20260502224015 28 0.0 0.0 0.00 0.00 0.00 8 1017.0
20260502223015 28 0.0 0.0 0.00 0.00 0.00 10 1017.1
20260502222016 28 0.0 0.0 0.00 0.00 0.00 8 1017.1
20260502221016 28 0.0 0.0 0.00 0.00 0.00 7 1017.1
20260502220037 28 0.0 0.0 0.00 0.00 0.00 8 1017.2
20260502215015 28 0.0 0.0 0.00 0.00 0.00 9 1017.5
20260502214016 28 0.0 0.0 0.00 0.00 0.00 8 1017.6
20260502213015 27 0.0 0.0 0.00 0.00 0.00 8 1017.2
20260502212015 27 0.0 0.0 0.00 0.00 0.00 12 1017.3
20260502211016 27 0.0 0.0 0.00 0.00 0.00 12 1017.6
20260502210016 26 0.0 0.0 0.00 0.00 0.00 12 1017.5
20260502205016 27 0.0 0.0 0.00 0.00 0.00 12 1018.1
20260502204015 27 0.0 0.0 0.00 0.00 0.00 13 1018.3
20260502203015 26 0.0 0.0 0.00 0.00 0.00 13 1018.0
20260502202016 26 0.0 0.0 0.00 0.00 0.00 14 1018.1
20260502201015 26 0.0 0.0 0.00 0.00 0.00 14 1018.3